Location: Cadeilhan
(42.8161°N, 0.3161°E)
Time: 23:08:27
(UTC+00:00)

USA 215 - Pass Details

Date: 18 February 2020
Orbit: 1098 x 1110 km, 123.0° (Epoch: 08 March)

Event Time Altitude Azimuth Distance (km) Brightness Sun altitude
Rises 04:13:49 0° 51° (NE) 3,922 7.1 -29.7°
Reaches altitude 10° 04:16:34 10° 42° (NE) 2,965 6.1 -29.2°
Maximum altitude 04:22:09 31° 343° (NNW) 1,817 4.3 -28.2°
Enters shadow 04:22:54 31° 331° (NNW) 1,845 4.2 -28.1°
